Temperature
5 6 6 6 7 6 6 6 6 7 7 7 7 7 7 8 8 9 9 9 9 10 10 10 10 10 10 10 10 10 9 9 9 9 8 8 8 8 8 8 8 8 8 8
5 6 6 6 6 6 6 6 6 6 6 6 7 7 7 7 7 7 8 8 8 9 9 9 9 9 9 9 9 9 9 9 8 8 8 8 8 7 8 8 8 7 7 7
5 5 6 6 6 6 6 5 6 6 6 6 6 6 6 6 6 6 7 7 7 8 8 8 8 8 8 9 8 8 8 8 8 7 7 7 7 7 7 7 7 7 7 6
4 5 5 6 5 5 5 5 5 5 5 5 5 5 5 5 6 6 6 6 7 7 7 7 7 8 8 8 8 8 8 7 7 7 7 6 6 6 6 6 6 6 6 6
4 4 4 5 5 5 5 5 4 4 4 4 5 5 5 5 5 5 5 6 6 6 6 7 7 7 7 7 7 7 7 7 7 7 6 6 6 6 6 6 5 5 5 5
4 5 5 5 5 5 5 5 4 4 3 3 4 3 4 4 5 5 5 5 5 5 6 6 6 6 6 7 7 7 7 6 6 6 6 6 5 5 5 5 5 4 4 4
4 4 4 4 5 5 5 5 4 4 3 3 3 3 4 4 4 4 4 4 5 5 5 5 5 5 6 6 6 6 6 6 5 5 5 5 5 5 4 4 4 4 4 4
3 4 4 4 4 4 4 3 3 3 3 3 3 3 3 3 4 4 4 4 4 4 4 4 4 4 5 5 5 5 5 5 5 5 4 4 4 4 4 3 3 3 3 3
3 4 3 3 4 4 4 4 3 3 3 3 3 3 3 3 3 3 3 3 3 3 3 3 3 3 3 4 4 4 4 4 4 4 4 4 4 3 3 3 3 3 3 3
2 2 2 3 3 4 4 3 3 3 3 2 2 2 2 2 2 2 2 2 2 2 2 3 3 3 3 3 3 3 3 3 3 3 3 3 3 3 2 2 2 2 2 2
1 2 2 2 3 3 3 3 2 2 2 2 1 1 1 1 1 1 1 1 1 1 1 1 2 2 2 2 2 2 2 2 2 2 2 2 2 2 2 2 2 2 2 2
2 2 1 2 3 3 2 2 2 2 1 1 1 0 0 0 0 0 0 0 0 0 0 0 1 1 1 1 1 1 1 1 1 1 1 1 1 1 1 1 1 1 1 1
3 3 3 3 3 2 2 2 1 1 1 0 -0 -0 -0 -0 -0 -0 -0 -1 -1 -1 -0 -0 -0 0 0 0 0 0 0 0 0 0 0 0 0 0 1 1 1 1 1 1
3 3 2 2 2 2 1 1 1 0 -0 -0 -1 -1 -1 -1 -1 -1 -1 -1 -1 -1 -1 -1 -1 -1 -1 -1 -1 -1 -1 -1 -1 -1 -1 -1 -1 -0 -0 -0 0 0 0 0
2 2 2 2 2 1 1 0 0 -0 -0 -1 -1 -1 -1 -1 -1 -1 -2 -2 -2 -2 -2 -2 -2 -2 -2 -2 -2 -2 -1 -1 -1 -1 -1 -1 -1 -1 -1 -1 -1 -0 -0 -0
2 2 2 1 1 1 1 0 -0 -0 -1 -1 -1 -1 -2 -2 -2 -2 -2 -2 -2 -2 -2 -2 -2 -2 -3 -3 -2 -2 -2 -2 -2 -2 -2 -2 -2 -2 -1 -1 -1 -1 -1 -1
2 1 1 1 1 1 0 -0 -0 -1 -1 -1 -2 -2 -2 -2 -2 -2 -2 -3 -3 -3 -3 -3 -3 -3 -3 -3 -3 -3 -3 -3 -3 -3 -3 -3 -3 -3 -2 -2 -2 -2 -2 -1
2 2 1 1 1 0 -0 -0 -1 -1 -2 -2 -2 -2 -2 -3 -3 -3 -3 -3 -3 -3 -3 -3 -4 -3 -3 -4 -4 -4 -4 -4 -4 -4 -4 -3 -3 -3 -3 -3 -3 -2 -2 -2
1 1 1 0 0 -0 -0 -1 -1 -2 -2 -2 -2 -3 -3 -3 -3 -3 -3 -3 -3 -3 -3 -4 -4 -4 -4 -4 -4 -4 -4 -4 -4 -4 -4 -4 -4 -4 -4 -4 -3 -3 -3 -3
1 1 0 0 -0 -1 -1 -1 -1 -2 -2 -3 -3 -3 -3 -3 -3 -3 -4 -3 -3 -4 -4 -4 -4 -4 -4 -5 -5 -5 -5 -5 -5 -5 -5 -5 -5 -5 -4 -4 -4 -4 -4 -3
1 0 0 -0 -1 -1 -1 -2 -2 -2 -3 -3 -3 -3 -3 -3 -3 -4 -4 -4 -3 -4 -4 -4 -5 -5 -5 -5 -5 -5 -6 -6 -6 -6 -5 -5 -5 -5 -5 -5 -5 -5 -4 -4
0 -0 -0 -1 -1 -1 -2 -2 -2 -3 -3 -3 -3 -4 -4 -4 -4 -4 -4 -4 -4 -5 -5 -5 -5 -5 -5 -6 -6 -6 -6 -6 -6 -6 -6 -6 -6 -6 -6 -6 -5 -5 -5 -5
-0 -1 -1 -1 -2 -2 -2 -2 -3 -3 -4 -4 -4 -4 -4 -4 -4 -5 -4 -4 -5 -5 -5 -5 -5 -5 -6 -6 -6 -6 -6 -6 -6 -6 -6 -6 -6 -6 -6 -6 -6 -6 -6 -6
-1 -1 -2 -2 -2 -3 -3 -3 -3 -4 -4 -4 -4 -5 -5 -5 -5 -5 -5 -5 -5 -5 -5 -5 -6 -6 -6 -6 -6 -6 -6 -6 -7 -7 -7 -7 -7 -7 -7 -7 -6 -6 -6 -6
-2 -2 -2 -3 -3 -3 -4 -4 -4 -4 -5 -5 -5 -5 -5 -6 -6 -6 -6 -6 -6 -6 -6 -6 -6 -6 -6 -6 -7 -7 -7 -7 -7 -7 -7 -7 -7 -7 -7 -7 -7 -6 -6 -6
-2 -3 -3 -4 -4 -4 -5 -5 -5 -6 -6 -6 -6 -6 -6 -6 -6 -6 -6 -6 -6 -6 -6 -6 -6 -6 -7 -7 -7 -7 -7 -7 -7 -7 -7 -7 -7 -7 -7 -7 -7 -7 -7 -7
-3 -4 -4 -4 -5 -5 -6 -6 -6 -7 -7 -7 -7 -7 -7 -7 -7 -7 -7 -7 -7 -7 -7 -7 -7 -7 -7 -7 -7 -7 -7 -7 -7 -7 -7 -7 -7 -7 -7 -7 -7 -7 -7 -7
Wind_Speed
0 1 1 0 1 1 2 4 4 3 3 3 2 1 2 4 5 6 7 7 7 6 6 6 6 5 4 3 1 2 3 4 5 5 6 6 6 6 6 6 6 6 6 5
3 3 1 1 2 1 2 2 3 2 3 3 1 2 3 4 4 5 5 7 7 7 7 7 6 6 5 4 3 2 4 5 4 5 6 6 7 7 6 6 6 6 6 6
1 4 3 3 3 4 2 2 4 5 4 1 0 1 1 2 3 4 5 6 6 7 7 6 6 6 6 5 3 3 4 4 5 6 7 6 7 7 7 6 6 6 5 5
1 3 2 4 2 3 3 0 1 1 1 1 1 1 2 3 3 4 5 6 7 7 7 7 6 6 5 4 3 3 4 4 5 6 7 6 7 7 6 5 5 5 5 5
2 0 5 4 1 2 3 1 1 1 1 2 2 3 3 4 5 4 4 5 5 5 6 7 7 6 5 3 2 3 4 4 5 6 7 7 8 7 6 5 5 5 5 6
3 1 4 4 1 1 2 2 1 2 2 2 3 1 2 4 5 5 5 5 5 5 5 6 7 6 4 4 3 4 5 4 5 6 7 8 8 7 5 5 6 6 5 6
3 3 6 4 2 2 3 4 1 2 2 2 1 2 3 5 5 5 5 5 6 6 6 6 7 6 5 4 4 5 3 3 4 5 6 7 6 6 6 6 6 6 6 5
4 4 7 1 3 4 4 2 3 2 1 1 1 3 4 5 6 7 7 6 6 6 6 6 6 5 5 5 5 3 2 3 4 4 5 5 6 6 6 7 7 6 5 5
7 6 2 1 2 1 3 3 2 2 0 0 2 3 5 6 6 6 6 6 5 6 7 6 5 5 5 6 5 3 2 3 3 3 4 5 6 7 6 6 6 6 6 6
3 5 3 2 2 1 2 3 2 2 0 1 3 4 6 6 7 7 6 6 6 6 6 7 6 5 5 6 4 3 3 3 3 3 4 5 5 6 7 7 7 7 7 7
4 3 1 3 4 4 3 3 2 1 0 1 3 5 5 6 7 6 6 6 5 6 7 7 7 6 6 5 4 4 4 3 3 4 4 5 6 7 8 8 8 8 7 7
6 6 6 5 5 5 4 3 2 1 1 2 2 4 5 5 6 6 7 6 6 6 6 7 7 7 6 5 4 4 4 4 3 3 4 4 5 5 10 10 13 14 12 9
3 3 4 3 3 4 4 2 1 1 2 3 3 4 5 5 5 6 7 7 7 7 7 7 7 7 6 5 5 5 5 5 4 4 4 4 4 5 5 7 12 14 15 16
4 4 3 3 3 3 2 1 1 1 2 2 3 4 5 5 6 7 7 7 7 7 7 7 7 7 6 6 5 6 6 6 5 5 4 5 5 5 5 5 5 5 9 15
4 3 4 3 3 3 2 1 1 2 3 4 3 4 5 6 7 8 7 7 7 7 7 7 7 8 6 6 6 6 6 5 5 5 5 5 5 5 5 6 6 5 4 6
4 3 4 3 4 3 2 2 3 4 4 5 5 6 6 7 8 8 7 6 6 7 8 7 8 8 7 6 6 6 6 8 7 5 5 5 5 5 5 5 5 5 6 5
6 5 5 4 5 4 4 4 5 5 5 6 7 7 7 7 8 8 8 7 7 8 8 8 9 8 7 6 6 5 5 6 8 6 5 5 5 5 5 5 5 6 6 6
6 5 5 4 4 4 4 4 5 5 6 6 7 6 7 7 8 9 9 8 8 9 8 8 7 7 6 6 5 5 5 5 5 5 5 5 5 5 5 5 5 6 5 6
4 3 3 3 3 3 4 5 5 5 6 6 6 7 7 8 8 9 8 8 9 10 8 6 9 8 7 7 7 5 5 6 6 5 5 7 7 5 5 5 5 5 5 4
3 2 2 1 1 2 4 5 5 6 6 5 6 7 9 9 8 8 8 8 8 8 8 9 8 7 6 7 8 5 5 6 6 5 5 5 5 5 5 5 4 4 4 4
2 1 1 1 3 3 4 5 5 6 7 6 6 8 9 9 8 7 7 9 8 7 7 10 7 6 6 6 8 5 5 6 6 5 5 5 5 5 5 4 4 4 3 3
1 1 1 2 3 5 4 4 5 6 7 7 7 7 8 9 8 8 8 8 8 10 7 5 5 8 9 9 5 5 5 6 5 5 5 5 5 5 4 4 3 3 2 2
1 1 1 3 4 5 6 5 5 6 7 7 8 8 8 8 6 7 8 5 5 10 7 6 9 12 13 7 5 5 5 5 5 5 4 4 4 4 4 3 3 3 2 2
0 1 2 3 3 4 6 6 6 6 7 7 7 8 7 7 6 6 7 10 12 12 7 9 13 13 12 5 5 5 5 5 5 5 4 4 4 3 3 3 3 3 2 2
0 1 2 3 4 4 5 6 7 7 7 6 7 7 6 5 6 7 6 7 11 12 7 9 13 13 7 5 5 5 5 5 5 4 4 4 3 3 3 3 3 3 2 2
1 2 2 3 4 4 4 5 5 6 6 7 7 6 6 5 6 6 6 7 9 11 8 6 6 7 5 5 5 5 4 5 5 4 3 3 3 3 3 3 3 3 2 2
2 2 2 3 3 3 4 5 6 6 6 7 9 8 7 7 6 6 7 6 6 6 6 6 5 5 5 5 5 5 4 4 4 4 3 3 3 3 3 3 3 3 2 3
Wind_Direction
310 312 155 210 237 169 164 174 174 204 212 271 312 9 25 28 35 40 32 25 20 8 355 351 348 342 330 313 279 185 175 181 186 169 152 145 144 143 140 138 138 137 133 131
21 11 50 347 291 220 203 180 183 187 258 280 311 44 37 29 36 33 18 8 0 355 349 341 331 321 312 294 269 214 199 199 181 162 157 158 156 150 144 139 138 138 144 147
337 327 25 309 267 205 196 208 177 204 233 287 5 2 3 13 30 23 360 349 347 341 331 322 315 306 295 282 264 223 212 199 182 172 170 170 161 156 157 156 152 152 158 160
81 42 256 258 319 168 161 161 253 216 307 306 238 146 61 47 26 2 348 341 336 332 327 323 316 312 299 284 254 228 217 204 190 180 178 170 166 171 168 160 163 167 172 172
108 26 288 297 279 156 153 265 273 196 6 11 36 69 25 21 8 344 331 325 319 317 313 316 319 316 310 293 264 236 229 218 202 189 182 177 181 182 174 168 172 174 174 178
125 175 253 264 288 215 117 283 307 126 88 53 78 81 292 341 343 334 331 328 325 324 324 326 326 324 316 298 272 255 247 232 208 194 190 192 192 184 176 176 182 176 182 187
159 227 266 262 276 109 158 251 139 121 104 96 154 221 285 325 334 333 328 326 329 332 332 327 327 331 323 310 285 276 262 228 206 200 200 197 187 179 174 175 174 181 190 198
166 208 253 282 134 169 205 138 126 123 106 81 291 308 322 331 331 333 332 330 332 331 328 328 336 342 331 317 304 294 260 230 217 207 199 189 182 180 177 176 182 191 200 212
193 211 226 216 185 158 147 143 152 150 179 295 306 314 322 323 323 322 322 322 324 319 319 327 338 341 326 315 313 308 285 254 236 213 202 190 186 184 183 188 195 200 206 218
230 251 224 205 177 141 136 148 150 148 185 296 298 306 312 313 317 318 317 316 320 320 319 322 329 330 319 314 311 302 282 265 240 220 214 202 197 193 194 199 204 207 212 219
232 247 220 229 205 177 147 136 132 132 201 281 299 303 307 311 314 316 316 317 318 316 311 311 318 320 321 320 317 304 289 272 251 233 225 219 215 212 210 213 210 208 212 210
213 209 190 214 192 172 166 176 181 206 293 309 301 300 307 306 308 311 310 311 313 313 312 311 313 315 318 319 312 298 290 280 265 251 241 232 230 235 228 226 229 227 222 216
198 162 163 160 149 156 168 187 206 236 273 296 306 305 305 303 305 307 309 312 311 308 305 305 309 310 315 315 306 290 281 278 273 262 252 243 236 236 246 239 236 236 235 233
159 132 142 173 177 165 164 175 177 272 292 293 296 305 305 302 304 306 306 305 305 305 305 306 306 306 311 313 303 294 286 276 269 262 255 248 241 240 239 239 240 242 238 238
176 172 171 159 147 149 156 167 257 288 298 303 299 299 302 301 300 299 299 301 303 303 304 305 303 303 308 307 301 296 291 281 271 267 261 257 249 241 239 239 241 243 234 237
157 135 140 160 185 195 199 223 256 275 285 289 293 293 291 291 293 296 297 300 300 301 302 302 298 299 303 300 296 294 289 285 281 274 269 264 257 249 242 239 239 239 237 233
153 178 194 209 217 222 227 235 247 263 276 281 284 290 294 297 298 297 296 294 288 286 289 289 289 294 294 291 288 287 286 287 286 280 272 268 263 258 254 248 244 244 242 235
183 183 184 196 209 228 247 254 256 264 268 274 284 288 289 290 289 291 294 299 299 295 287 278 281 289 288 286 286 284 282 281 278 275 272 268 267 261 257 255 252 252 254 250
163 167 179 197 211 224 245 260 266 267 273 278 281 282 281 279 279 284 291 294 294 295 292 286 299 297 289 288 293 281 281 283 281 278 275 275 275 268 264 261 259 255 255 249
143 153 174 214 233 235 259 271 277 280 279 278 279 282 285 284 282 284 287 282 272 267 277 288 293 286 282 283 290 278 277 278 278 279 279 275 273 272 268 265 262 261 258 253
156 167 216 272 283 281 276 280 281 283 286 281 274 277 281 285 285 282 283 288 283 272 277 288 289 281 281 283 287 275 272 272 272 269 270 274 276 277 275 271 267 264 262 261
159 194 273 291 296 298 297 290 282 284 289 288 282 279 283 288 289 283 267 263 278 292 293 278 277 283 290 290 275 270 268 268 270 268 265 266 269 272 274 274 274 274 271 266
157 234 287 296 295 295 301 298 291 289 289 289 290 288 284 282 281 283 290 280 280 292 294 277 286 293 296 292 274 270 267 266 266 265 264 264 266 269 270 273 274 274 272 267
137 309 305 307 310 309 309 308 306 297 290 288 285 282 281 288 288 265 264 291 301 300 290 288 295 297 297 288 277 272 266 264 263 260 259 262 263 263 263 265 267 268 267 270
11 323 321 323 316 305 301 309 311 307 303 300 294 290 281 268 273 288 289 290 298 302 295 295 298 299 295 281 277 273 267 264 262 257 249 251 255 257 257 257 255 257 259 260
3 319 302 291 288 296 305 310 310 310 311 311 310 304 297 290 282 285 289 290 291 299 297 290 292 295 288 281 277 275 272 278 284 276 258 252 252 252 252 249 249 249 251 250
356 333 320 316 313 310 308 306 306 308 309 308 308 309 308 306 302 299 297 297 297 296 294 293 291 289 287 284 280 277 273 269 266 265 260 255 253 252 252 250 251 252 253 254
Height
1463 1461 1461 1461 1461 1461 1463 1465 1467 1465 1465 1462 1461 1460 1460 1459 1459 1459 1460 1460 1460 1460 1460 1460 1460 1461 1461 1461 1461 1462 1462 1463 1464 1465 1466 1468 1470 1472 1474 1475 1477 1478 1480 1480
1464 1463 1461 1462 1462 1462 1462 1463 1464 1464 1465 1462 1461 1461 1461 1461 1461 1461 1461 1461 1461 1461 1460 1460 1460 1459 1459 1459 1458 1458 1459 1459 1460 1461 1462 1464 1466 1468 1470 1471 1473 1474 1475 1476
1468 1465 1461 1465 1462 1462 1462 1463 1463 1464 1464 1462 1462 1462 1463 1463 1463 1463 1463 1462 1461 1460 1460 1459 1458 1457 1456 1456 1455 1455 1455 1456 1456 1457 1459 1461 1463 1464 1466 1467 1469 1470 1471 1472
1471 1468 1471 1465 1460 1460 1462 1463 1463 1463 1463 1463 1463 1463 1463 1463 1463 1463 1463 1462 1461 1459 1458 1457 1456 1454 1453 1452 1452 1452 1452 1452 1453 1454 1455 1457 1459 1460 1462 1463 1464 1466 1466 1467
1473 1473 1470 1463 1461 1461 1462 1462 1463 1463 1463 1463 1463 1463 1464 1464 1463 1463 1462 1461 1460 1458 1457 1455 1453 1451 1450 1449 1448 1448 1448 1448 1449 1450 1451 1453 1454 1456 1457 1459 1460 1461 1462 1462
1472 1469 1468 1463 1460 1459 1462 1463 1463 1463 1463 1463 1463 1466 1466 1464 1463 1462 1461 1460 1458 1456 1455 1453 1451 1449 1447 1446 1445 1445 1445 1445 1446 1446 1447 1448 1450 1452 1453 1454 1455 1456 1457 1458
1471 1471 1468 1462 1459 1460 1467 1465 1463 1462 1463 1463 1464 1466 1465 1463 1462 1461 1459 1458 1456 1454 1452 1450 1448 1446 1444 1443 1442 1441 1441 1441 1442 1442 1443 1444 1445 1447 1448 1449 1450 1451 1452 1453
1470 1471 1469 1460 1459 1462 1463 1461 1461 1462 1463 1463 1463 1463 1462 1461 1460 1458 1457 1455 1453 1451 1449 1448 1445 1443 1441 1439 1438 1438 1437 1437 1437 1438 1438 1439 1440 1441 1442 1443 1444 1445 1446 1447
1465 1464 1460 1458 1459 1459 1459 1460 1461 1462 1462 1462 1461 1461 1460 1459 1457 1456 1454 1452 1450 1448 1446 1445 1443 1441 1438 1437 1435 1434 1433 1433 1433 1433 1433 1434 1435 1436 1437 1438 1439 1439 1440 1441
1461 1458 1457 1457 1457 1458 1459 1459 1460 1460 1461 1460 1460 1459 1457 1456 1454 1452 1451 1449 1447 1445 1443 1441 1440 1438 1436 1434 1432 1430 1429 1429 1428 1428 1428 1429 1429 1430 1431 1432 1433 1434 1435 1436
1458 1456 1456 1455 1456 1456 1457 1458 1458 1459 1459 1458 1457 1456 1454 1453 1451 1449 1447 1445 1444 1442 1439 1437 1436 1434 1432 1430 1428 1427 1425 1425 1424 1423 1423 1423 1424 1424 1425 1426 1427 1428 1429 1430
1454 1451 1452 1452 1453 1455 1456 1456 1456 1456 1456 1455 1454 1453 1451 1450 1448 1446 1444 1442 1440 1438 1436 1433 1431 1430 1428 1426 1424 1423 1421 1420 1419 1419 1418 1418 1418 1419 1419 1420 1421 1422 1423 1424
1447 1448 1449 1450 1451 1453 1454 1454 1454 1454 1453 1452 1451 1450 1448 1446 1444 1442 1440 1438 1436 1433 1431 1429 1427 1425 1424 1422 1420 1418 1417 1416 1415 1414 1413 1413 1413 1413 1413 1414 1415 1416 1417 1418
1445 1446 1448 1449 1450 1451 1451 1452 1451 1451 1450 1449 1448 1447 1445 1443 1441 1439 1436 1434 1432 1429 1427 1425 1423 1421 1419 1417 1415 1414 1412 1411 1410 1409 1408 1408 1408 1408 1408 1408 1409 1409 1411 1412
1444 1445 1446 1447 1448 1449 1449 1449 1449 1448 1447 1446 1445 1443 1441 1439 1437 1435 1433 1430 1428 1425 1423 1421 1419 1416 1414 1412 1410 1409 1407 1406 1405 1404 1403 1403 1402 1402 1402 1402 1403 1403 1404 1406
1442 1443 1444 1445 1446 1446 1446 1446 1446 1445 1444 1443 1441 1440 1438 1435 1433 1431 1429 1426 1424 1421 1419 1416 1414 1412 1410 1408 1405 1404 1402 1401 1400 1399 1398 1397 1397 1397 1396 1396 1397 1397 1398 1399
1439 1441 1442 1443 1443 1444 1444 1443 1443 1442 1441 1439 1438 1436 1434 1431 1429 1427 1425 1422 1419 1417 1415 1412 1409 1407 1405 1403 1401 1399 1397 1396 1395 1393 1392 1392 1391 1391 1391 1391 1391 1391 1392 1393
1438 1439 1440 1441 1441 1441 1441 1440 1440 1438 1437 1435 1434 1432 1429 1427 1425 1422 1420 1417 1415 1412 1410 1408 1405 1403 1400 1398 1396 1394 1392 1390 1389 1388 1387 1386 1386 1385 1385 1385 1385 1385 1386 1387
1436 1437 1438 1438 1438 1438 1438 1437 1436 1435 1433 1431 1429 1427 1425 1423 1420 1418 1415 1413 1410 1407 1405 1403 1400 1398 1396 1393 1391 1389 1387 1386 1384 1383 1382 1381 1380 1380 1380 1379 1379 1379 1380 1381
1434 1435 1436 1436 1436 1435 1434 1433 1432 1430 1429 1427 1425 1423 1420 1418 1416 1413 1410 1408 1406 1403 1400 1398 1396 1393 1391 1389 1387 1385 1383 1381 1379 1378 1377 1376 1376 1375 1374 1374 1374 1374 1374 1375
1433 1433 1433 1433 1433 1432 1431 1430 1428 1426 1424 1423 1420 1418 1415 1413 1411 1408 1405 1402 1400 1398 1395 1393 1391 1388 1386 1384 1382 1380 1378 1376 1375 1373 1372 1371 1371 1370 1369 1369 1369 1369 1369 1369
1431 1431 1431 1430 1430 1429 1427 1426 1424 1422 1420 1418 1416 1413 1410 1408 1405 1403 1400 1398 1395 1393 1391 1388 1386 1384 1382 1379 1377 1375 1373 1372 1370 1369 1368 1367 1366 1365 1365 1365 1364 1364 1364 1364
1429 1429 1428 1427 1426 1425 1423 1422 1420 1417 1415 1413 1411 1408 1405 1403 1400 1397 1395 1393 1390 1388 1386 1383 1381 1379 1377 1374 1372 1370 1369 1367 1366 1365 1364 1363 1362 1361 1361 1360 1360 1360 1359 1359
1426 1426 1425 1424 1423 1421 1419 1417 1415 1413 1411 1408 1406 1403 1400 1397 1395 1393 1390 1388 1385 1383 1380 1378 1376 1374 1372 1369 1367 1365 1364 1362 1361 1360 1359 1358 1358 1357 1357 1356 1356 1355 1355 1355
1424 1423 1422 1420 1419 1417 1415 1413 1410 1408 1406 1403 1401 1399 1396 1393 1390 1387 1385 1382 1380 1377 1375 1373 1371 1368 1366 1364 1362 1361 1359 1358 1357 1356 1355 1354 1353 1353 1352 1352 1352 1351 1351 1351
1421 1420 1418 1417 1415 1413 1411 1408 1406 1403 1400 1397 1395 1393 1391 1388 1385 1382 1379 1377 1374 1372 1369 1367 1365 1363 1361 1359 1358 1356 1355 1354 1352 1351 1350 1350 1349 1349 1348 1348 1348 1347 1347 1346
1418 1417 1415 1414 1412 1409 1407 1404 1402 1399 1396 1393 1390 1388 1385 1382 1380 1377 1374 1372 1369 1367 1364 1362 1360 1358 1356 1354 1353 1352 1350 1349 1348 1347 1346 1346 1345 1345 1344 1344 1344 1343 1343 1342